Weather History for Mayfld Grav Cnty AP, Mayfield, KY

Change the Weather History Date:

Thursday, May 22, 2014

  Actual Average (KPAH) Record (KPAH)
Temperature  
Mean Temperature 78 °F 69 °F  
Max Temperature 87 °F 80 °F 96 °F (1941)
Min Temperature 68 °F 58 °F 42 °F (2002)
Degree Days  
Heating Degree Days 0 1  
Month to date heating degree days 56  
Since 1 July heating degree days 4120  
Cooling Degree Days 12 5  
Month to date cooling degree days 75  
Year to date cooling degree days 117  
Growing Degree Days 28 (Base 50)    
Moisture  
Dew Point 67 °F    
Average Humidity 70    
Maximum Humidity 88    
Minimum Humidity 52    
Precipitation  
Precipitation 0.00 in 0.14 in 2.69 in (1957)
Month to date precipitation 3.63  
Year to date precipitation 19.91  
Snow  
Snow 0.00 in 0.00 in 0.00 in (2002)
Month to date snowfall 0.0  
Since 1 July snowfall 9.1  
Snow Depth -    
Sea Level Pressure  
Sea Level Pressure 30.06 in    
Wind  
Wind Speed 7 mph (WSW)    
Max Wind Speed 12 mph    
Max Gust Speed 17 mph    
Visibility 10 miles    
Events      
T = Trace of Precipitation, MM = Missing Value Source: NWS Daily Summary

Daily Weather History Graph

Daily Weather History Graph

Search for Another Location

Airport:

Trip Planner

Search our weather history database for the weather conditions in past years. The results will help you decide how hot, cold, wet, or windy it might be!

Date:

Astronomy

May. 22, 2014 Rise Set
Actual Time 5:41 AM CDT 8:00 PM CDT
Civil Twilight 5:12 AM CDT 8:30 PM CDT
Nautical Twilight 4:36 AM CDT 9:06 PM CDT
Astronomical Twilight 3:56 AM CDT 9:46 PM CDT
Moon 1:50 AM CDT (5/22) 1:57 PM CDT (5/22)
Length of Visible Light 15h 17m
Length of Day
14h 18m
Last Quarter, 37% of the Moon is Illuminated
May 22
Last Quarter
May 28
New
Jun 5
First Quarter
Jun 12
Full
Jun 19
Last Quarter

Hourly Weather History & Observations

Time (CDT) Temp. Heat Index Dew Point Humidity Pressure Visibility Wind Dir Wind Speed Gust Speed Precip Events Conditions
12:15 AM 71.6 °F - 62.6 °F 73% 30.06 in 10.0 mi SW 5.8 mph - N/A   Clear
12:35 AM 69.8 °F - 62.6 °F 78% 30.05 in 10.0 mi SSW 5.8 mph - N/A   Clear
12:55 AM 69.8 °F - 62.6 °F 78% 30.05 in 10.0 mi SW 6.9 mph - N/A   Clear
1:15 AM 69.8 °F - 62.6 °F 78% 30.04 in 10.0 mi SW 6.9 mph - N/A   Clear
1:35 AM 69.8 °F - 62.6 °F 78% 30.03 in 10.0 mi SW 9.2 mph - N/A   Clear
1:55 AM 69.8 °F - 62.6 °F 78% 30.03 in 10.0 mi SW 9.2 mph - N/A   Clear
2:15 AM 69.8 °F - 62.6 °F 78% 30.02 in 10.0 mi SW 9.2 mph - N/A   Clear
2:35 AM 69.8 °F - 62.6 °F 78% 30.03 in 10.0 mi SW 8.1 mph - N/A   Clear
2:55 AM 69.8 °F - 62.6 °F 78% 30.03 in 10.0 mi SW 6.9 mph - N/A   Clear
3:15 AM 69.8 °F - 62.6 °F 78% 30.03 in 10.0 mi SW 8.1 mph - N/A   Clear
3:35 AM 68.0 °F - 62.6 °F 83% 30.02 in 10.0 mi WSW 8.1 mph - N/A   Clear
3:55 AM 69.8 °F - 62.6 °F 78% 30.03 in 10.0 mi WSW 8.1 mph - N/A   Clear
4:15 AM 69.8 °F - 64.4 °F 83% 30.03 in 10.0 mi WSW 8.1 mph - N/A   Clear
4:35 AM 69.8 °F - 64.4 °F 83% 30.03 in 10.0 mi WSW 9.2 mph - N/A   Clear
4:55 AM 69.8 °F - 64.4 °F 83% 30.04 in 10.0 mi WSW 8.1 mph - N/A   Clear
5:15 AM 69.8 °F - 64.4 °F 83% 30.04 in 10.0 mi WSW 8.1 mph - N/A   Scattered Clouds
5:35 AM 68.0 °F - 64.4 °F 88% 30.04 in 10.0 mi WSW 8.1 mph - N/A   Scattered Clouds
5:55 AM 68.0 °F - 64.4 °F 88% 30.05 in 10.0 mi WSW 6.9 mph - N/A   Mostly Cloudy
6:15 AM 68.0 °F - 64.4 °F 88% 30.06 in 10.0 mi WSW 6.9 mph - N/A   Overcast
6:35 AM 68.0 °F - 64.4 °F 88% 30.06 in 10.0 mi WSW 8.1 mph - N/A   Mostly Cloudy
6:55 AM 68.0 °F - 64.4 °F 88% 30.06 in 10.0 mi WSW 9.2 mph - N/A   Overcast
7:15 AM 69.8 °F - 64.4 °F 83% 30.06 in 10.0 mi WSW 9.2 mph - N/A   Overcast
7:35 AM 71.6 °F - 64.4 °F 78% 30.07 in 10.0 mi WSW 8.1 mph 16.1 mph N/A   Mostly Cloudy
7:55 AM 71.6 °F - 64.4 °F 78% 30.07 in 10.0 mi West 10.4 mph 17.3 mph N/A   Scattered Clouds
8:15 AM 73.4 °F - 66.2 °F 78% 30.07 in 10.0 mi West 11.5 mph - N/A   Scattered Clouds
8:35 AM 73.4 °F - 64.4 °F 73% 30.08 in 10.0 mi West 9.2 mph - N/A   Overcast
8:55 AM 73.4 °F - 68.0 °F 83% 30.08 in 10.0 mi West 6.9 mph - N/A   Overcast
9:15 AM 75.2 °F - 68.0 °F 78% 30.08 in 10.0 mi West 8.1 mph - N/A   Overcast
9:35 AM 77.0 °F - 68.0 °F 74% 30.09 in 10.0 mi WNW 8.1 mph - N/A   Mostly Cloudy
9:55 AM 77.0 °F - 68.0 °F 74% 30.09 in 10.0 mi West 11.5 mph - N/A   Scattered Clouds
10:15 AM 78.8 °F - 68.0 °F 69% 30.09 in 10.0 mi West 10.4 mph - N/A   Clear
10:35 AM 78.8 °F - 69.8 °F 74% 30.10 in 10.0 mi WNW 9.2 mph - N/A   Clear
10:55 AM 80.6 °F 83.9 °F 69.8 °F 70% 30.11 in 10.0 mi WNW 9.2 mph - N/A   Clear
11:15 AM 80.6 °F 83.9 °F 69.8 °F 70% 30.11 in 10.0 mi WNW 6.9 mph - N/A   Clear
11:55 AM 82.4 °F 86.3 °F 69.8 °F 66% 30.09 in 10.0 mi West 6.9 mph - N/A   Scattered Clouds
12:15 PM 82.4 °F 86.3 °F 69.8 °F 66% 30.09 in 10.0 mi West 8.1 mph - N/A   Clear
12:35 PM 82.4 °F 86.3 °F 69.8 °F 66% 30.10 in 10.0 mi West 8.1 mph - N/A   Clear
12:55 PM 82.4 °F 86.3 °F 69.8 °F 66% 30.09 in 10.0 mi West 6.9 mph - N/A   Mostly Cloudy
1:15 PM 86.0 °F 90.4 °F 69.8 °F 58% 30.09 in 10.0 mi West 9.2 mph - N/A   Scattered Clouds
1:35 PM 84.2 °F 88.4 °F 69.8 °F 62% 30.08 in 10.0 mi West 10.4 mph - N/A   Scattered Clouds
1:55 PM 86.0 °F 90.4 °F 69.8 °F 58% 30.08 in 10.0 mi West 9.2 mph 17.3 mph N/A   Scattered Clouds
2:15 PM 86.0 °F 90.4 °F 69.8 °F 58% 30.07 in 10.0 mi West 8.1 mph - N/A   Mostly Cloudy
2:35 PM 86.0 °F 90.4 °F 69.8 °F 58% 30.07 in 10.0 mi West 8.1 mph - N/A   Mostly Cloudy
2:55 PM 86.0 °F 90.4 °F 69.8 °F 58% 30.07 in 10.0 mi West 6.9 mph - N/A   Mostly Cloudy
3:15 PM 86.0 °F 89.4 °F 68.0 °F 55% 30.06 in 10.0 mi WSW 10.4 mph - N/A   Mostly Cloudy
3:35 PM 87.8 °F 91.4 °F 68.0 °F 52% 30.04 in 10.0 mi WNW 9.2 mph - N/A   Scattered Clouds
3:55 PM 87.8 °F 91.4 °F 68.0 °F 52% 30.04 in 10.0 mi WNW 9.2 mph - N/A   Clear
4:15 PM 87.8 °F 91.4 °F 68.0 °F 52% 30.04 in 10.0 mi WNW 8.1 mph - N/A   Scattered Clouds
4:35 PM 87.8 °F 91.4 °F 68.0 °F 52% 30.03 in 10.0 mi West 5.8 mph 9.2 mph N/A   Scattered Clouds
4:55 PM 87.8 °F 91.4 °F 68.0 °F 52% 30.03 in 10.0 mi West 9.2 mph - N/A   Scattered Clouds
5:15 PM 86.0 °F 89.4 °F 68.0 °F 55% 30.03 in 10.0 mi West 10.4 mph - N/A   Scattered Clouds
5:35 PM 86.0 °F 89.4 °F 68.0 °F 55% 30.03 in 10.0 mi WSW 8.1 mph - N/A   Scattered Clouds
5:55 PM 86.0 °F 89.4 °F 68.0 °F 55% 30.03 in 10.0 mi WNW 6.9 mph - N/A   Mostly Cloudy
6:15 PM 86.0 °F 89.4 °F 68.0 °F 55% 30.02 in 10.0 mi West 9.2 mph - N/A   Scattered Clouds
6:35 PM 86.0 °F 89.4 °F 68.0 °F 55% 30.02 in 10.0 mi West 3.5 mph - N/A   Scattered Clouds
6:55 PM 84.2 °F 87.3 °F 68.0 °F 58% 30.02 in 10.0 mi West 5.8 mph - N/A   Mostly Cloudy
7:15 PM 82.4 °F 85.4 °F 68.0 °F 62% 30.03 in 10.0 mi WSW 4.6 mph - N/A   Mostly Cloudy
7:35 PM 82.4 °F 85.4 °F 68.0 °F 62% 30.03 in 10.0 mi West 3.5 mph - N/A   Mostly Cloudy
7:55 PM 82.4 °F 85.4 °F 68.0 °F 62% 30.03 in 10.0 mi Calm Calm - N/A   Overcast
8:15 PM 80.6 °F 83.9 °F 69.8 °F 70% 30.03 in 10.0 mi Calm Calm - N/A   Overcast
8:35 PM 80.6 °F 83.9 °F 69.8 °F 70% 30.05 in 10.0 mi Calm Calm - N/A   Overcast
8:55 PM 80.6 °F 83.2 °F 68.0 °F 65% 30.05 in 10.0 mi Calm Calm - N/A   Overcast
9:15 PM 78.8 °F - 68.0 °F 69% 30.05 in 10.0 mi Calm Calm - N/A   Mostly Cloudy
9:35 PM 78.8 °F - 68.0 °F 69% 30.06 in 10.0 mi Calm Calm - N/A   Overcast
9:55 PM 77.0 °F - 69.8 °F 78% 30.06 in 10.0 mi Calm Calm - N/A   Mostly Cloudy
10:15 PM 78.8 °F - 68.0 °F 69% 30.07 in 10.0 mi Calm Calm - N/A   Overcast
10:35 PM 78.8 °F - 69.8 °F 74% 30.07 in 10.0 mi Calm Calm - N/A   Overcast
10:55 PM 77.0 °F - 69.8 °F 78% 30.07 in 10.0 mi NNE 3.5 mph - N/A   Mostly Cloudy
11:15 PM 77.0 °F - 66.2 °F 69% 30.07 in 10.0 mi ENE 9.2 mph - N/A   Scattered Clouds
11:35 PM 75.2 °F - 62.6 °F 65% 30.06 in 10.0 mi East 3.5 mph - N/A   Clear
11:55 PM 75.2 °F - 62.6 °F 65% 30.06 in 10.0 mi Calm Calm - N/A   Clear